Regional Weather Roundup
Issued by NWS Newport/Morehead, NC

Current Version | Previous Version | Graphics & Text | Print | Product List | Glossary Off
Versions: 1 2 3 4 5 6 7 8 9 10 11 12 13 14 15 16 17 18 19 20 21 22 23 24 25 26 27 28 29 30 31 32 33 34 35 36 37 38 39 40 41 42 43 44 45 46 47 48 49 50

000
ASUS42 KMHX 280313
RWRMHX
WEATHER ROUNDUP FOR EASTERN NORTH CAROLINA
NATIONAL WEATHER SERVICE NEWPORT/MOREHEAD CITY NC
1000 PM EST MON FEB 27 2017

NOTE: "FAIR" INDICATES FEW OR NO CLOUDS BELOW 12,000 FEET
WITH NO SIGNIFICANT WEATHER AND/OR OBSTRUCTIONS TO VISIBILITY

NCZ015>017-031-032-045>047-102-103-280400-
NORTH COAST

CITY           SKY/WX    TMP DP  RH WIND       PRES   REMARKS
EDENTON        CLOUDY    59  49  68 SE6       30.40S
ELIZABETH CITY CLOUDY    55  47  74 E5        30.41R
KITTY HAWK     NOT AVBL
MANTEO         CLOUDY    58  53  84 SE3       30.41R

$$

NCZ045>047-081-094-103-104-280400-
CENTRAL COAST

CITY           SKY/WX    TMP DP  RH WIND       PRES   REMARKS
FRISCO         CLOUDY    69  53  56 S16       30.38F

$$

NCZ095-097-098-100-101-280400-
SOUTHERN COAST

CITY           SKY/WX    TMP DP  RH WIND       PRES   REMARKS
BEAUFORT       MOCLDY    57  52  83 E5        30.37S
CEDAR ISLAND   NOT AVBL
JACKSONVILLE   PTCLDY    58  54  86 E6        30.36S
PINEY ISLAND   MOCLDY   N/A N/A N/A E3        30.37
WILMINGTON     CLOUDY    61  53  75 SE3       30.33F


$$

NCZ011>013-027>030-043-044-078>080-089-090>093-098-280400-
COASTAL PLAIN

CITY           SKY/WX    TMP DP  RH WIND       PRES   REMARKS
AHOSKIE        CLOUDY    56  44  64 SE3       30.39S
CLINTON        CLOUDY    60  51  72 E3        30.33F
ELIZABETHTOWN  CLOUDY    61  50  66 E5        30.32R
GOLDSBORO      CLOUDY    58  52  81 E5        30.34S
GREENVILLE     CLOUDY    57  46  67 SE5       30.38S
HAVELOCK       MOCLDY    57  48  72 N3        30.40R
KENANSVILLE    PTCLDY    57  50  77 E5        30.35F
KINSTON        CLOUDY    57  46  67 E5        30.38S
NEW BERN       CLOUDY    53  49  86 CALM      30.40R
RICHLANDS      CLOUDY    57  51  80 E6        30.36F
ROCKY MOUNT    CLOUDY    59  48  67 S3        30.37R
WASHINGTON     CLOUDY    55  48  75 CALM      30.39S
WHITEVILLE     PTCLDY    61  50  66 SE7       30.30F

$$

AMZ130-135-150-152-154-156-158-170-250-252-270-ANZ085-086-088-633-658-670-280400-
MARINE OBSERVATIONS

STATION/POSITION TIME  TEMP    WIND        PRES    WAVE   SWELL
                       AIR SEA DIR/SP/G            HT/PER HT/PER
                 (UTC) (F)     (DEG/KT/KT) (MB)    (FT/S) (FT/S)
CHESAPEAKE LIGHT NOT AVBL
64 E VA BEACH    0150   52 49   60/  4/  6 1030.3    3/ 8   2/ 8
DUCK             0248   52 49  120/  5/  6 1029.3
2 E DUCK         0300      51                N/A     2/ 8
OREGON INLET     0236   57 56  100/  8/ 11 1028.4
13E OREGON INLT  NOT AVBL
HATTERAS CG      0248   68 62  170/ 12/ 17 1028.4
DIAMOND BUOY     0150   67 72  150/ 14/ 16 1029.6    4/ 8   3/ 8
CAPE LOOKOUT     0200   64     170/ 10/ 12 1028.3
BEAUFORT LAB     0248   60 62   70/  2/  4 1027.4
30 SE NEW RVR IN 0208   67     180/ 10/ 12 1028.6
30 SE NEW RVR IN 0243      65                N/A     3/ 5
27 SE WRIGHTSVLE 0208   67 63  190/ 10/ 16 1027.8
5 SE WRIGHTSVLE  0208   59 58  160/  6/ 10 1028.1
225 S CAPE HAT   0150   69 70  120/ 12/ 14 1029.6    4/ 8   3/ 8
41 SE CHARLESTON 0150   70 69   90/ 12/ 14 1026.3    4/ 6   3/ 6

$$



USA.gov is the U.S. government's official web portal to all federal, state and local government web resources and services.